Weather History for Hazlehurst, GA

Change the Weather History Date:

Sunday, January 20, 2013

  Actual Average Record
Temperature  
Mean Temperature 51 °F -  
Max Temperature 65 °F 72 °F 72 °F (2014)
Min Temperature 37 °F 35 °F 36 °F (2014)
Degree Days  
Heating Degree Days 14    
Growing Degree Days 1 (Base 50)    
Moisture  
Dew Point 42 °F    
Average Humidity 80    
Maximum Humidity 100    
Minimum Humidity 43    
Precipitation  
Precipitation 0.00 in - - ()
Sea Level Pressure  
Sea Level Pressure 30.17 in    
Wind  
Wind Speed 1 mph (NW)    
Max Wind Speed 7 mph    
Max Gust Speed -    
Visibility 7 miles    
Events      
Averages and records for this station are not official NWS values.
T = Trace of Precipitation, MM = Missing Value Source: NWS Daily Summary

Daily Weather History Graph

Daily Weather History Graph

Search for Another Location

Airport:

Trip Planner

Search our weather history database for the weather conditions in past years. The results will help you decide how hot, cold, wet, or windy it might be!

Date:

Astronomy

Jan. 20, 2013 Rise Set
Actual Time 7:29 AM EST 5:53 PM EST
Civil Twilight 7:03 AM EST 6:20 PM EST
Nautical Twilight 6:33 AM EST 6:49 PM EST
Astronomical Twilight 6:04 AM EST 7:19 PM EST
Moon 12:53 PM EST (1/20) 2:03 AM EST (1/20)
Length of Visible Light 11h 16m
Length of Day
10h 24m
Waxing Gibbous, 66% of the Moon is Illuminated
Jan 20
Waxing Gibbous
Jan 26
Full
Feb 3
Last Quarter
Feb 10
New
Feb 17
First Quarter

Hourly Weather History & Observations

Time (EST) Temp. Windchill Dew Point Humidity Pressure Visibility Wind Dir Wind Speed Gust Speed Precip Events Conditions
12:15 AM 42.4 °F - 42.6 °F 100% 30.25 in 2.5 mi Calm Calm - N/A   Clear
12:35 AM 42.3 °F - 42.4 °F 100% 30.24 in 2.0 mi Calm Calm - N/A   Clear
12:55 AM 42.4 °F - 42.6 °F 100% 30.23 in 2.5 mi Calm Calm - N/A   Clear
1:15 AM 42.8 °F - 43.0 °F 100% 30.23 in 3.0 mi Calm Calm - N/A   Clear
1:35 AM 42.1 °F - 42.1 °F 100% 30.22 in 2.5 mi Calm Calm - N/A   Clear
1:55 AM 41.5 °F - 41.7 °F 100% 30.22 in 2.0 mi Calm Calm - N/A   Clear
2:15 AM 40.8 °F - 41.0 °F 100% 30.22 in 2.5 mi Calm Calm - N/A   Clear
2:35 AM 41.0 °F - 41.2 °F 100% 30.22 in 4.0 mi Calm Calm - N/A   Clear
2:55 AM 40.5 °F - 40.6 °F 100% 30.21 in 5.0 mi Calm Calm - N/A   Clear
3:15 AM 40.1 °F - 40.3 °F 100% 30.22 in 5.0 mi Calm Calm - N/A   Clear
3:35 AM 39.7 °F - 39.9 °F 100% 30.22 in 4.0 mi Calm Calm - N/A   Clear
3:55 AM 39.4 °F - 39.6 °F 100% 30.22 in 4.0 mi Calm Calm - N/A   Clear
4:15 AM 39.0 °F - 39.2 °F 100% 30.21 in 2.5 mi Calm Calm - N/A   Clear
4:35 AM 37.9 °F - 38.1 °F 100% 30.20 in 2.0 mi Calm Calm - N/A   Clear
4:55 AM 38.3 °F - 38.5 °F 100% 30.21 in 1.8 mi Calm Calm - N/A   Mist
5:15 AM 38.1 °F - 38.1 °F 100% 30.21 in 0.8 mi Calm Calm - N/A   Mist
5:35 AM 37.8 °F - 37.9 °F 100% 30.21 in 2.5 mi Calm Calm - N/A   Clear
5:55 AM 37.8 °F - 37.8 °F 100% 30.21 in 2.5 mi Calm Calm - N/A   Clear
6:15 AM 37.6 °F - 37.8 °F 100% 30.21 in 2.5 mi Calm Calm - N/A   Clear
6:35 AM 37.8 °F - 37.8 °F 100% 30.21 in 3.0 mi Calm Calm - N/A   Scattered Clouds
6:55 AM - - - N/A% 30.21 in 4.0 mi Calm Calm - N/A   Mostly Cloudy
7:15 AM 38.5 °F - 38.7 °F 100% 30.21 in 4.0 mi Calm Calm - N/A   Scattered Clouds
7:35 AM 38.7 °F - 39.0 °F 100% 30.21 in 3.0 mi Calm Calm - N/A   Clear
7:55 AM 40.8 °F - 41.0 °F 100% 30.22 in 3.0 mi Calm Calm - N/A   Clear
8:15 AM 39.6 °F 35.4 °F 39.7 °F 100% 30.23 in 2.5 mi North 5.8 mph - N/A   Mostly Cloudy
8:35 AM 40.3 °F 37.1 °F 40.5 °F 100% 30.24 in 3.0 mi NNW 4.6 mph - N/A   Scattered Clouds
8:55 AM 41.9 °F - 42.3 °F 100% 30.24 in 3.0 mi Calm Calm - N/A   Clear
9:15 AM 45.1 °F 43.7 °F 44.1 °F 96% 30.24 in 7.0 mi NW 3.5 mph - N/A   Clear
9:35 AM 47.8 °F - 43.7 °F 86% 30.25 in 10.0 mi Calm Calm - N/A   Clear
9:55 AM 50.4 °F - 43.7 °F 78% 30.25 in 10.0 mi Calm Calm - N/A   Clear
10:15 AM 52.5 °F - 44.2 °F 73% 30.24 in 10.0 mi NNW 6.9 mph - N/A   Clear
10:35 AM 53.4 °F - 44.6 °F 72% 30.24 in 10.0 mi NNW 3.5 mph - N/A   Clear
10:55 AM 55.0 °F - 45.1 °F 69% 30.23 in 10.0 mi NNW 4.6 mph - N/A   Clear
11:15 AM 57.4 °F - 44.8 °F 63% 30.22 in 10.0 mi Calm Calm - N/A   Clear
11:35 AM 59.5 °F - 44.1 °F 57% 30.20 in 10.0 mi NNW 4.6 mph - N/A   Clear
11:55 AM 60.8 °F - 44.4 °F 55% 30.19 in 10.0 mi North 5.8 mph - N/A   Clear
12:15 PM 61.5 °F - 44.6 °F 54% 30.18 in 10.0 mi North 5.8 mph - N/A   Clear
12:35 PM 62.2 °F - 45.0 °F 53% 30.16 in 10.0 mi Calm Calm - N/A   Clear
12:55 PM 63.3 °F - 45.5 °F 52% 30.14 in 10.0 mi NW 5.8 mph - N/A   Clear
1:15 PM 63.5 °F - 45.3 °F 52% 30.14 in 10.0 mi WNW 4.6 mph - N/A   Clear
1:35 PM 63.9 °F - 45.5 °F 51% 30.13 in 10.0 mi West 3.5 mph - N/A   Clear
1:55 PM 64.2 °F - 45.3 °F 50% 30.12 in 10.0 mi Calm Calm - N/A   Clear
2:15 PM 64.9 °F - 45.3 °F 49% 30.11 in 10.0 mi West 3.5 mph - N/A   Clear
2:35 PM 65.1 °F - 45.0 °F 48% 30.11 in 10.0 mi WNW 5.8 mph - N/A   Clear
2:55 PM 65.1 °F - 44.2 °F 47% 30.11 in 10.0 mi NW 5.8 mph - N/A   Clear
3:15 PM 64.9 °F - 43.2 °F 45% 30.10 in 10.0 mi NW 4.6 mph - N/A   Clear
3:35 PM 65.1 °F - 42.4 °F 44% 30.10 in 10.0 mi WNW 3.5 mph - N/A   Clear
3:55 PM 64.9 °F - 41.9 °F 43% 30.10 in 10.0 mi NW 3.5 mph - N/A   Clear
4:15 PM 64.9 °F - 42.6 °F 44% 30.10 in 10.0 mi Calm Calm - N/A   Clear
4:35 PM 64.8 °F - 42.8 °F 45% 30.10 in 10.0 mi NW 3.5 mph - N/A   Clear
4:55 PM 64.2 °F - 41.9 °F 44% 30.10 in 10.0 mi Calm Calm - N/A   Clear
5:15 PM 63.0 °F - 42.4 °F 47% 30.10 in 10.0 mi Calm Calm - N/A   Clear
5:35 PM 61.2 °F - 42.6 °F 51% 30.10 in 10.0 mi Calm Calm - N/A   Clear
5:55 PM 57.7 °F - 43.0 °F 58% 30.11 in 10.0 mi Calm Calm - N/A   Clear
6:15 PM 55.4 °F - 43.5 °F 64% 30.11 in 10.0 mi Calm Calm - N/A   Clear
6:35 PM 52.9 °F - 44.2 °F 72% 30.12 in 10.0 mi Calm Calm - N/A   Clear
6:55 PM 50.7 °F - 44.1 °F 78% 30.12 in 10.0 mi Calm Calm - N/A   Clear
7:15 PM 50.2 °F - 43.7 °F 78% 30.12 in 10.0 mi Calm Calm - N/A   Clear
7:35 PM 48.2 °F - 42.8 °F 82% 30.12 in 10.0 mi Calm Calm - N/A   Clear
7:55 PM 46.9 °F - 42.1 °F 83% 30.12 in 10.0 mi Calm Calm - N/A   Clear
8:15 PM 46.2 °F - 41.7 °F 84% 30.12 in 10.0 mi Calm Calm - N/A   Clear
8:35 PM 45.9 °F - 42.1 °F 87% 30.13 in 10.0 mi Calm Calm - N/A   Clear
8:55 PM 45.1 °F - 42.3 °F 90% 30.13 in 10.0 mi Calm Calm - N/A   Clear
9:15 PM 45.3 °F - 41.2 °F 85% 30.13 in 10.0 mi Calm Calm - N/A   Clear
9:35 PM 43.5 °F - 41.0 °F 91% 30.13 in 10.0 mi Calm Calm - N/A   Clear
9:55 PM 44.1 °F - 40.6 °F 88% 30.14 in 10.0 mi Calm Calm - N/A   Clear
10:15 PM 43.3 °F - 40.5 °F 90% 30.13 in 10.0 mi Calm Calm - N/A   Clear
10:35 PM 42.8 °F - 40.5 °F 91% 30.13 in 10.0 mi Calm Calm - N/A   Clear
10:55 PM 42.4 °F 40.7 °F 39.4 °F 89% 30.13 in 10.0 mi West 3.5 mph - N/A   Clear
11:15 PM 42.6 °F - 40.1 °F 91% 30.13 in 10.0 mi Calm Calm - N/A   Clear
11:35 PM 41.2 °F - 40.1 °F 96% 30.13 in 10.0 mi Calm Calm - N/A   Clear
11:55 PM 40.8 °F 38.8 °F 40.1 °F 97% 30.12 in 10.0 mi WSW 3.5 mph - N/A   Clear